SCP
0 0 0 0 0 0 0 0 0 0 0 0 0 0 0 0 0 0 0 0 0 0 0 0 0 0 0 0 0 0 0 1 1 1 0 0 0 0 0 0 0 0 0 0
0 0 0 0 0 0 0 0 0 0 0 0 0 0 0 0 0 0 0 0 0 0 0 0 0 0 0 0 0 0 0 1 1 1 0 0 0 0 0 0 0 0 0 0
0 0 0 0 0 0 0 0 0 0 0 0 0 0 0 0 0 0 0 0 0 0 0 0 0 0 0 0 0 0 0 1 1 1 1 0 0 0 0 0 0 0 0 0
0 0 0 0 0 0 0 0 0 0 0 0 0 0 0 0 0 0 0 0 0 0 0 0 0 0 0 0 0 0 0 0 1 1 1 0 0 0 0 0 0 0 0 0
0 0 0 0 0 0 0 0 0 0 0 0 0 0 0 0 0 0 0 0 0 0 0 0 0 0 0 0 0 0 0 0 1 1 1 1 0 0 0 0 0 0 0 0
0 0 0 0 0 0 0 0 0 0 0 0 0 0 0 0 0 0 0 0 0 0 0 0 0 0 0 0 0 0 0 0 0 1 1 1 1 0 0 0 0 0 0 0
0 0 0 0 0 0 0 0 0 0 0 0 0 0 0 0 0 0 0 0 0 0 0 0 0 0 0 0 0 0 0 0 0 1 1 1 1 1 0 0 0 0 0 0
0 0 0 0 0 0 0 0 0 0 0 0 0 0 0 0 0 0 0 0 0 0 0 0 0 0 0 0 0 0 0 0 0 1 1 1 1 1 1 0 0 0 0 0
0 0 0 0 0 0 0 0 0 0 0 0 0 0 0 0 0 0 0 0 0 0 0 0 0 0 0 0 0 0 0 0 0 0 1 1 1 1 1 0 0 0 0 0
0 0 0 0 0 0 0 0 0 0 0 0 0 0 0 0 0 0 0 0 0 0 0 0 0 0 0 0 0 0 0 0 0 1 1 1 1 1 0 0 0 0 0 0
0 0 0 0 0 0 0 0 0 0 0 0 0 0 0 0 0 0 0 0 0 0 0 0 0 0 0 0 0 0 0 0 0 1 1 1 1 1 0 0 0 0 0 0
0 0 0 0 0 0 0 0 0 0 0 0 0 0 0 0 0 0 0 0 0 0 0 0 0 0 0 0 0 0 0 0 0 1 1 1 1 0 0 0 0 0 0 0
0 0 0 0 0 0 0 0 0 0 0 0 0 0 0 0 0 0 0 0 0 0 0 0 0 0 0 0 0 0 0 0 0 1 1 1 1 0 0 0 0 0 0 0
0 0 0 0 0 0 0 0 0 0 0 0 0 0 0 0 0 0 0 0 0 0 0 0 0 0 0 0 0 0 0 0 0 0 0 0 0 0 0 0 0 0 0 0
0 0 0 0 0 0 0 0 0 0 0 0 0 0 0 0 0 0 0 0 0 0 0 0 0 0 0 0 0 0 0 0 0 0 0 0 0 0 0 0 0 0 0 0
0 0 0 0 0 0 0 0 0 0 0 0 0 0 0 0 0 0 0 0 0 0 0 0 0 0 0 0 0 0 0 0 0 0 0 0 0 0 0 0 0 0 0 0
0 0 0 0 0 0 0 0 0 0 0 0 0 0 0 0 0 0 0 0 0 0 0 0 0 0 0 0 0 0 0 0 0 0 0 0 0 0 0 0 0 0 0 0
0 0 0 0 0 0 0 0 0 0 0 0 0 0 0 0 0 0 0 0 0 0 0 0 0 0 0 0 0 0 0 0 0 0 0 0 0 0 0 0 0 0 0 0
0 0 0 0 0 0 0 0 0 0 0 0 0 0 0 0 0 0 0 0 0 0 0 0 0 0 0 0 0 0 0 0 0 0 0 0 0 0 0 0 0 0 0 0
0 0 0 0 0 0 0 0 0 0 0 0 0 0 0 0 0 0 0 0 0 0 0 0 0 0 0 0 0 0 0 0 0 0 0 0 0 0 0 0 0 0 0 0
0 0 0 0 0 0 0 0 0 0 0 0 0 0 0 0 0 0 0 0 0 0 0 0 0 0 0 0 0 0 0 0 0 0 0 0 0 0 0 0 0 0 0 0
0 0 0 0 0 0 0 0 0 0 0 0 0 0 0 0 0 0 0 0 0 0 0 0 0 0 0 0 0 0 0 0 0 0 0 0 0 0 0 0 0 0 0 0
0 0 0 0 0 0 0 0 0 0 0 0 0 0 0 0 0 0 0 0 0 0 0 0 0 0 0 0 0 0 0 0 0 0 0 0 0 0 0 0 0 0 0 0
0 0 0 0 0 0 0 0 0 0 0 0 0 0 0 0 0 0 0 0 0 0 0 0 0 0 0 0 0 0 0 0 0 0 0 0 0 0 0 0 0 0 0 0
0 0 0 0 0 0 0 0 0 0 0 0 0 0 0 0 0 0 0 0 0 0 0 0 0 0 0 0 0 0 0 0 0 0 0 0 0 0 0 0 0 0 0 0
0 0 0 0 0 0 0 0 0 0 0 0 0 0 0 0 0 0 0 0 0 0 0 0 0 0 0 0 0 0 0 0 0 0 0 0 0 0 0 0 0 0 0 0
Wind_Speed
6 7 3 2 0 3 3 2 1 3 3 1 2 4 6 3 4 4 4 4 4 3 2 1 0 1 1 2 1 1 1 1 1 1 1 1 1 2 2 2 3 3 3 3
6 4 3 1 2 3 3 1 2 3 3 1 2 6 6 4 5 6 6 6 5 3 2 1 1 0 1 1 1 1 1 1 1 0 0 1 1 1 1 1 2 3 3 3
4 2 2 2 3 2 1 3 3 2 4 2 2 6 3 2 2 2 3 4 3 4 4 2 1 1 1 1 1 1 1 1 1 1 1 1 1 1 1 2 2 3 3 3
2 3 3 3 2 0 2 2 3 1 1 3 2 4 6 2 3 3 4 3 4 4 3 3 2 2 2 2 1 1 1 1 1 1 1 0 0 1 2 2 2 3 3 3
2 3 4 3 2 0 2 0 1 1 1 2 1 1 8 1 3 5 5 4 4 4 3 3 3 2 2 1 1 1 1 1 1 1 0 0 1 1 1 1 2 2 2 2
0 1 1 1 2 1 1 2 2 2 2 2 2 2 7 3 5 4 4 4 4 3 2 2 2 1 2 1 1 0 0 1 1 1 0 0 1 1 2 2 2 2 2 2
4 3 3 2 2 2 2 3 4 5 3 4 1 2 9 5 4 4 4 4 3 3 3 2 2 2 2 2 1 1 0 1 1 0 0 0 1 1 1 2 2 3 2 2
2 4 3 3 1 1 1 2 4 2 3 5 2 5 7 4 3 3 2 2 2 3 3 3 3 3 2 2 1 1 1 1 1 1 1 1 1 1 1 2 2 2 2 2
1 3 2 2 2 1 1 1 1 3 1 2 5 6 8 3 3 3 2 1 2 3 3 3 3 3 2 2 2 1 1 1 1 1 1 1 1 1 1 2 2 2 2 2
1 1 3 3 2 2 1 2 2 3 1 3 6 5 5 5 4 4 3 3 3 2 2 3 3 3 2 2 1 1 2 1 1 1 1 1 1 1 1 1 2 2 3 2
1 1 4 3 1 1 1 1 2 2 2 3 3 7 5 5 4 4 5 4 3 3 3 3 2 2 2 1 1 1 1 1 0 0 0 1 1 1 1 1 2 3 3 2
0 2 2 4 2 1 1 2 2 2 2 3 3 9 3 3 3 3 5 4 3 3 3 2 2 1 1 1 1 1 1 1 1 1 0 0 1 1 1 2 2 2 2 2
1 2 2 5 3 2 1 1 1 1 2 3 4 9 3 2 3 3 4 4 3 3 3 2 2 2 2 2 2 1 1 1 1 0 0 0 1 1 1 2 2 2 2 2
2 2 4 5 4 1 3 4 2 2 3 4 9 11 9 7 6 6 5 4 4 4 3 3 3 2 2 2 2 2 1 1 1 1 1 1 1 1 2 1 2 2 2 2
2 1 3 5 5 3 6 7 6 7 8 8 9 10 13 8 6 6 5 4 4 4 4 4 4 3 2 2 2 2 1 1 1 1 1 1 1 1 1 1 1 1 2 2
2 1 1 4 2 4 7 10 9 10 8 10 10 14 12 7 4 5 5 4 5 5 5 4 4 4 3 3 3 2 1 1 1 1 1 1 0 0 1 1 1 2 2 2
2 3 1 4 5 5 9 9 9 7 8 8 11 12 5 5 5 6 5 5 6 6 5 5 5 4 4 4 3 3 2 1 1 1 1 0 0 1 1 1 1 2 2 2
4 3 2 2 4 5 8 2 6 7 8 10 10 9 6 6 6 5 5 6 6 6 5 5 4 3 3 2 2 2 2 2 2 1 1 1 1 1 1 1 1 2 2 2
3 5 3 2 2 10 11 4 5 5 9 9 11 11 7 4 5 6 6 7 7 6 5 5 4 3 3 3 3 3 2 2 2 2 2 2 2 2 1 2 2 2 2 2
2 3 4 3 2 8 8 2 3 3 7 6 9 9 6 1 3 6 3 3 5 5 4 3 2 2 2 2 3 3 3 3 4 4 3 2 2 2 3 3 3 2 2 2
3 2 4 5 6 13 9 3 4 3 7 3 6 7 6 7 8 5 3 3 3 3 3 2 2 2 3 2 3 3 3 4 4 2 2 2 2 3 3 2 2 2 2 2
10 8 8 6 6 14 6 8 9 10 3 2 4 5 7 8 7 5 5 4 3 3 2 2 2 3 2 2 3 4 5 4 2 2 2 3 2 2 2 2 2 1 1 2
10 11 9 13 13 6 8 10 8 3 4 4 4 5 5 6 6 6 5 5 4 3 3 2 3 3 2 2 4 5 5 2 2 2 3 3 2 2 2 3 3 2 2 2
7 4 5 8 13 10 10 10 8 6 7 6 5 4 5 6 7 6 6 5 4 4 3 2 2 3 4 3 4 5 3 2 3 3 4 3 3 3 2 3 3 3 3 3
9 8 6 10 10 8 10 12 13 10 8 8 7 6 7 7 8 7 6 6 5 4 3 3 4 5 6 4 4 4 3 3 3 4 3 3 3 3 3 3 4 5 5 6
10 13 13 13 10 9 8 5 8 9 10 10 9 8 7 8 9 7 7 5 4 4 3 3 4 5 5 4 5 4 3 4 4 4 4 3 3 3 3 3 4 8 8 9
Wind_Direction
20 55 35 323 179 148 135 131 216 275 292 335 250 266 266 242 218 222 218 210 217 230 259 291 332 26 39 34 34 38 58 49 74 52 33 9 354 345 1 5 5 1 355 352
45 32 304 304 81 93 116 163 278 299 325 308 301 283 268 239 219 221 219 219 222 230 234 246 270 5 16 349 346 14 1 1 3 5 209 220 277 288 329 355 4 360 357 355
91 297 327 55 45 62 315 209 231 273 319 357 338 305 268 257 233 224 222 218 221 220 230 236 246 256 269 304 314 325 322 338 354 19 50 34 33 353 354 357 355 350 352 360
36 336 20 42 6 14 282 226 207 239 351 328 50 301 288 262 268 239 229 220 226 232 230 234 240 260 262 263 271 295 326 335 358 59 90 61 324 291 291 311 324 335 344 352
358 354 20 23 315 15 214 232 174 204 181 321 8 237 285 298 263 247 232 226 227 228 221 227 235 240 255 256 249 258 316 329 4 39 52 329 314 290 305 333 328 332 338 343
298 330 8 282 293 220 222 40 36 39 73 303 248 190 279 244 228 237 228 223 224 226 223 224 241 255 266 272 271 246 286 311 357 43 24 305 316 328 335 334 328 327 329 333
357 355 351 345 9 16 48 68 26 10 10 261 256 216 254 262 244 225 231 233 227 217 214 220 231 249 256 258 252 240 232 302 326 337 273 253 272 279 291 310 310 317 325 327
24 324 338 357 32 313 3 108 135 197 246 290 295 241 260 280 290 278 246 228 221 220 218 226 230 231 240 249 250 237 244 275 309 279 269 260 264 256 273 290 300 298 301 306
102 284 319 327 310 96 76 84 133 122 49 300 279 284 300 287 305 316 309 276 251 239 233 236 240 234 235 240 243 221 228 251 278 269 274 281 310 307 297 300 307 298 307 314
144 278 308 317 12 18 58 142 98 113 123 297 299 283 268 292 297 308 298 275 270 271 271 262 245 233 232 225 233 210 201 222 253 277 277 320 325 312 308 310 310 307 314 322
107 143 319 357 35 247 47 70 107 112 153 174 284 277 231 238 261 274 276 269 260 266 269 267 259 243 226 216 219 225 210 220 247 261 304 343 331 344 349 330 317 312 317 322
136 117 288 270 256 256 201 199 164 164 239 211 237 271 267 232 272 274 283 286 283 279 276 267 257 239 231 221 231 234 225 229 234 229 1 326 339 345 338 316 314 326 335 336
144 111 9 344 343 360 316 252 196 144 147 198 220 266 299 327 311 294 287 290 292 293 291 288 267 237 230 221 221 227 232 238 241 188 185 279 329 328 309 310 326 338 334 335
117 132 179 213 247 254 272 265 221 173 201 231 236 260 286 296 297 298 294 286 285 284 278 276 267 251 235 215 210 216 232 226 214 184 202 241 265 267 281 306 321 328 332 334
111 184 237 260 278 276 262 259 238 219 220 224 249 260 271 277 276 277 277 280 280 284 279 264 254 248 229 214 213 214 223 205 174 175 220 252 263 266 301 320 327 334 336 327
102 162 304 291 279 285 276 260 240 236 234 242 264 272 268 279 279 274 270 264 268 273 271 267 258 243 227 218 212 208 215 209 159 181 234 274 324 321 301 310 330 340 333 330
140 131 93 283 314 329 279 242 206 212 216 207 231 250 276 285 275 266 261 254 257 264 265 258 251 236 224 213 200 200 204 176 168 199 224 242 274 289 292 304 327 324 317 323
147 130 134 311 6 263 250 196 189 214 242 224 241 260 266 266 283 271 252 244 256 261 260 258 249 239 222 197 186 178 161 168 184 205 224 232 245 272 297 302 300 309 313 309
161 145 131 127 281 280 289 242 183 199 269 228 231 254 265 292 319 286 246 225 233 240 242 240 230 216 202 193 180 165 172 178 195 223 235 236 232 251 268 273 283 297 304 304
90 123 130 144 207 250 255 177 161 125 281 240 208 236 247 150 295 282 272 227 237 243 241 238 222 188 198 199 166 169 192 197 221 232 239 240 236 237 247 260 277 295 291 288
156 158 178 190 231 261 253 163 136 177 252 239 200 218 201 203 226 257 287 257 249 253 251 229 196 203 216 187 165 191 210 228 236 231 232 239 239 243 249 263 275 277 281 296
178 175 192 169 207 254 202 151 191 221 245 224 217 213 211 228 251 265 269 266 269 270 258 217 207 230 222 181 180 208 231 238 219 209 225 237 240 245 249 248 261 265 263 279
204 194 188 195 216 242 181 205 224 221 237 240 232 232 220 233 250 255 258 260 262 257 253 238 226 242 240 201 194 219 240 215 196 213 233 240 242 243 241 233 238 245 241 250
234 200 203 246 256 249 240 246 250 234 236 247 246 245 226 236 250 254 255 255 252 253 247 242 228 242 252 233 217 227 236 196 195 223 238 236 234 244 241 238 232 229 234 242
211 178 206 248 264 281 258 234 238 240 241 248 251 240 235 237 250 248 251 249 244 246 247 229 227 241 252 248 240 235 218 191 211 229 236 239 237 239 244 245 239 238 236 234
190 185 191 228 218 213 245 231 218 223 235 237 240 249 240 225 239 245 248 245 240 241 242 240 240 245 253 250 250 239 209 196 207 230 236 234 234 237 239 250 269 260 258 264